Change the Weather History Date:

Wednesday, January 21, 2015

  Actual Average Record
Temperature  
Mean Temperature 15 °F 25 °F  
Max Temperature 30 °F 32 °F 45 °F (2005)
Min Temperature 0 °F 17 °F -26 °F (1962)
Degree Days  
Heating Degree Days 50 40  
Month to date heating degree days 929 879  
Since 1 July heating degree days 4156 4393  
Cooling Degree Days 0 0  
Month to date cooling degree days 0 0  
Year to date cooling degree days 0 0  
Moisture  
Dew Point 7 °F    
Average Humidity 85    
Maximum Humidity 100    
Minimum Humidity 69    
Precipitation  
Precipitation 0.00 in 0.04 in 0.56 in (1943)
Month to date precipitation 2.32 0.98  
Year to date precipitation 2.32 0.98  
Snow  
Snow 0.00 in - - ()
Month to date snowfall 30.2  
Year to date snowfall 30.2  
Since 1 July snowfall 56.7  
Snow Depth 9.00 in    
Sea Level Pressure  
Sea Level Pressure 30.44 in    
Wind  
Wind Speed 0 mph (WNW)    
Max Wind Speed 5 mph    
Max Gust Speed 5 mph    
Visibility 6 miles    
Events Fog    
T = Trace of Precipitation, MM = Missing Value Source: NWS Daily Summary

Daily Weather History Graph

Daily Weather History Graph

Search for Another Location

Airport or City:

Trip Planner

Search our weather history database for the weather conditions in past years. The results will help you decide how hot, cold, wet, or windy it might be!

Date:

Astronomy

Jan. 21, 2015 Rise Set
Actual Time 8:18 AM MST 5:18 PM MST
Civil Twilight 7:43 AM MST 5:53 PM MST
Nautical Twilight 7:05 AM MST 6:32 PM MST
Astronomical Twilight 6:28 AM MST 7:09 PM MST
Moon 8:41 AM MST (1/21) 7:23 PM MST (1/21)
Length of Visible Light 10h 10m
Length of Day
9h 00m
New Moon, 2% of the Moon is Illuminated
Jan 21
New Moon
Jan 26
First Quarter
Feb 3
Full
Feb 11
Last Quarter
Feb 18
New

Hourly Weather History & Observations

Time (MST) Temp. Windchill Dew Point Humidity Pressure Visibility Wind Dir Wind Speed Gust Speed Precip Events Conditions
12:44 AM 12.0 °F - 10.0 °F 92% 30.35 in 1.8 mi Calm Calm - N/A   Clear
12:47 AM 12.0 °F - 10.9 °F 95% 30.35 in 0.8 mi Calm Calm - N/A   Clear
12:49 AM 10.4 °F - 10.4 °F 100% 30.35 in 0.5 mi Calm Calm - N/A Fog Light Freezing Fog
12:55 AM 10.9 °F - 10.9 °F 100% 30.48 in 0.5 mi Calm Calm - N/A Fog Light Freezing Fog
1:07 AM 8.1 °F - 6.1 °F 92% 30.35 in 1.2 mi Calm Calm - N/A   Partly Cloudy
1:09 AM 7.0 °F - 6.1 °F 96% 30.35 in 2.0 mi Calm Calm - N/A   Partly Cloudy
1:18 AM 5.0 °F - 3.9 °F 95% 30.35 in 3.0 mi Calm Calm - N/A   Partly Cloudy
1:21 AM 7.0 °F - 5.0 °F 92% 30.35 in 1.8 mi Calm Calm - N/A   Clear
1:30 AM 7.0 °F 0.1 °F 6.1 °F 96% 30.35 in 3.0 mi WNW 3.5 mph - N/A   Clear
1:55 AM 10.0 °F 3.6 °F 8.1 °F 92% 30.48 in 10.0 mi NW 3.5 mph - N/A   Clear
2:55 AM 5.0 °F -2.1 °F 3.9 °F 95% 30.48 in 2.5 mi WNW 3.5 mph - N/A   Clear
3:12 AM 6.1 °F - 5.0 °F 95% 30.36 in 10.0 mi Calm Calm - N/A   Clear
3:55 AM 3.9 °F - 3.0 °F 96% 30.50 in 8.0 mi Calm Calm - N/A   Clear
4:10 AM 6.1 °F - 3.9 °F 91% 30.36 in 1.8 mi Calm Calm - N/A   Clear
4:17 AM 1.0 °F - 1.0 °F 100% 30.36 in 2.0 mi Calm Calm - N/A   Partly Cloudy
4:24 AM 1.9 °F - -0.9 °F 88% 30.37 in 1.0 mi Calm Calm - N/A   Mist
4:31 AM 3.0 °F - -0.0 °F 87% 30.37 in 0.5 mi Calm Calm - N/A Fog Light Freezing Fog
4:46 AM 6.1 °F - 3.0 °F 87% 30.37 in 1.5 mi Calm Calm - N/A   Mostly Cloudy
4:51 AM 6.8 °F - 5.0 °F 92% 30.37 in 2.5 mi Calm Calm - N/A   Scattered Clouds
4:55 AM 7.0 °F - 6.1 °F 96% 30.51 in 2.0 mi Calm Calm - N/A   Partly Cloudy
5:03 AM 6.1 °F -0.9 °F 5.0 °F 95% 30.37 in 1.2 mi WNW 3.5 mph - N/A   Partly Cloudy
5:09 AM 3.9 °F - 1.9 °F 91% 30.37 in 2.0 mi Calm Calm - N/A   Partly Cloudy
5:18 AM 3.9 °F - 1.0 °F 88% 30.37 in 10.0 mi Calm Calm - N/A   Clear
5:55 AM 3.9 °F - 1.0 °F 88% 30.52 in 10.0 mi Calm Calm - N/A   Clear
6:55 AM 3.9 °F - 3.0 °F 96% 30.53 in 10.0 mi Calm Calm - N/A   Clear
7:55 AM 1.9 °F - -0.0 °F 91% 30.56 in 10.0 mi Calm Calm - N/A   Clear
8:55 AM 1.9 °F - -0.0 °F 91% 30.57 in 10.0 mi Calm Calm - N/A   Clear
9:55 AM 7.0 °F 0.1 °F 3.9 °F 87% 30.56 in 10.0 mi WNW 3.5 mph - N/A   Clear
10:55 AM 10.9 °F - 8.1 °F 88% 30.56 in 10.0 mi Calm Calm - N/A   Clear
11:55 AM 16.0 °F - 12.9 °F 88% 30.53 in 9.0 mi Calm Calm - N/A   Clear
12:55 PM 21.9 °F - 18.0 °F 85% 30.50 in 10.0 mi Calm Calm - N/A   Clear
1:55 PM 28.0 °F - 19.0 °F 69% 30.48 in 10.0 mi Calm Calm - N/A   Clear
2:55 PM 28.0 °F - 19.0 °F 69% 30.48 in 10.0 mi Calm Calm - N/A   Clear
3:55 PM 28.0 °F - 19.9 °F 72% 30.48 in 10.0 mi Calm Calm - N/A   Clear
4:55 PM 23.0 °F - 18.0 °F 81% 30.49 in 10.0 mi Calm Calm - N/A   Clear
5:55 PM 21.0 °F - 18.0 °F 88% 30.50 in 10.0 mi Calm Calm - N/A   Clear
6:55 PM 17.1 °F - 15.1 °F 92% 30.49 in 10.0 mi Calm Calm - N/A   Clear
7:55 PM 14.0 °F - 12.9 °F 95% 30.50 in 10.0 mi Calm Calm - N/A   Clear
8:55 PM 10.9 °F - 8.1 °F 88% 30.51 in 7.0 mi Calm Calm - N/A   Clear
9:55 PM 9.0 °F - 8.1 °F 96% 30.51 in 7.0 mi Calm Calm - N/A   Clear
10:55 PM 8.1 °F - 6.1 °F 92% 30.50 in 9.0 mi Calm Calm - N/A   Clear
11:55 PM 9.0 °F - 8.1 °F 96% 30.49 in 8.0 mi Calm Calm - N/A   Clear